Location: Newark
(3.8581°S, 32.4250°W)
Time: 03:58:59
(UTC+00:00)

Envisat - Visible Passes

Search period start: 16 September 2019 00:00
Search period end: 26 September 2019 00:00
Orbit: 764 x 766 km, 98.1° (Epoch: 15 September)

Date Brightness Start Highest point End Pass type
(mag) Time Alt. Az. Time Alt. Az. Time Alt. Az.
16 Sep 6.6 07:35:51 10° E 07:36:41 10° ESE 07:37:31 10° ESE visible
16 Sep 5.4 21:40:31 10° SSW 21:44:22 22° WSW 21:48:12 10° NW visible
17 Sep 3.5 21:02:43 10° S 21:07:44 62° WSW 21:12:44 10° NNW visible
18 Sep 3.3 20:26:13 10° SSE 20:31:05 45° ENE 20:35:54 10° N visible
19 Sep 4.9 21:28:47 10° SSW 21:33:09 29° WSW 21:37:31 10° NW visible
20 Sep 3.0 20:51:25 10° S 20:56:31 85° WSW 21:01:34 10° NNW visible
21 Sep 6.0 21:55:55 10° SW 21:58:32 14° WSW 22:01:09 10° WNW visible
22 Sep 4.4 21:17:12 10° S 21:21:56 40° WSW 21:26:39 10° NW visible
23 Sep 2.9 20:40:13 10° SSE 20:45:17 71° ENE 20:50:19 10° N visible
24 Sep 6.4 07:37:46 10° E 07:39:39 12° ESE 07:41:32 10° SE visible
24 Sep 5.6 21:43:46 10° SSW 21:47:20 19° WSW 21:50:54 10° WNW visible
25 Sep 3.7 21:05:45 10° S 21:10:43 55° WSW 21:15:39 10° NNW visible
